Location: Crab Orchard
(37.7292°N, 88.8042°W)
Time: 22:55:04
(UTC+00:00)

Cosmos 1908 Rocket - Pass Details

Date: 08 December 2019
Orbit: 605 x 633 km, 82.5° (Epoch: 19 January)

Event Time Altitude Azimuth Distance (km) Brightness Sun altitude
Rises 23:17:55 0° 5° (N) 2,904 6.7 -8.3°
Reaches altitude 10° 23:20:28 10° 18° (NNE) 1,988 5.8 -8.7°
Maximum altitude 23:24:10 26° 76° (ENE) 1,214 4.5 -9.4°
Drops below altitude 10° 23:27:50 10° 134° (SE) 1,962 5.9 -10.1°
Sets 23:30:19 0° 146° (SSE) 2,857 6.8 -10.5°
